Year,Month,Day,Hour,Minute,Value (Times are PST for temperature in C)
2017,04,16,00,00,4.40
2017,04,16,00,01,4.40
2017,04,16,00,02,4.40
2017,04,16,00,03,4.40
2017,04,16,00,04,4.40
2017,04,16,00,05,4.40
2017,04,16,00,06,4.40
2017,04,16,00,07,4.40
2017,04,16,00,08,4.40
2017,04,16,00,09,4.40
2017,04,16,00,10,4.50
2017,04,16,00,11,4.50
2017,04,16,00,12,4.50
2017,04,16,00,13,4.40
2017,04,16,00,14,4.40
2017,04,16,00,15,4.40
2017,04,16,00,16,4.40
2017,04,16,00,17,4.40
2017,04,16,00,18,4.40
2017,04,16,00,19,4.40
2017,04,16,00,20,4.40
2017,04,16,00,21,4.40
2017,04,16,00,22,4.40
2017,04,16,00,23,4.40
2017,04,16,00,24,4.40
2017,04,16,00,25,4.40
2017,04,16,00,26,4.40
2017,04,16,00,27,4.40
2017,04,16,00,28,4.40
2017,04,16,00,29,4.40
2017,04,16,00,30,4.40
2017,04,16,00,31,4.50
2017,04,16,00,32,4.50
2017,04,16,00,33,4.50
2017,04,16,00,34,4.50
2017,04,16,00,35,4.50
2017,04,16,00,36,4.60
2017,04,16,00,37,4.50
2017,04,16,00,38,4.50
2017,04,16,00,39,4.40
2017,04,16,00,40,4.40
2017,04,16,00,41,4.40
2017,04,16,00,42,4.40
2017,04,16,00,43,4.30
2017,04,16,00,44,4.30
2017,04,16,00,45,4.30
2017,04,16,00,46,4.30
2017,04,16,00,47,4.20
2017,04,16,00,48,4.20
2017,04,16,00,49,4.20
2017,04,16,00,50,4.20
2017,04,16,00,51,4.10
2017,04,16,00,52,4.20
2017,04,16,00,53,4.20
2017,04,16,00,54,4.20
2017,04,16,00,55,4.20
2017,04,16,00,56,4.20
2017,04,16,00,57,4.20
2017,04,16,00,58,4.20
2017,04,16,00,59,4.30
2017,04,16,01,00,4.30
2017,04,16,01,01,4.30
2017,04,16,01,02,4.20
2017,04,16,01,03,4.20
2017,04,16,01,04,4.20
2017,04,16,01,05,4.20
2017,04,16,01,06,4.20
2017,04,16,01,07,4.20
2017,04,16,01,08,4.20
2017,04,16,01,09,4.20
2017,04,16,01,10,4.20
2017,04,16,01,11,4.10
2017,04,16,01,12,4.10
2017,04,16,01,13,4.10
2017,04,16,01,14,4.00
2017,04,16,01,15,4.00
2017,04,16,01,16,3.90
2017,04,16,01,17,3.90
2017,04,16,01,18,3.90
2017,04,16,01,19,3.90
2017,04,16,01,20,3.80
2017,04,16,01,21,3.90
2017,04,16,01,22,3.90
2017,04,16,01,23,3.90
2017,04,16,01,24,3.90
2017,04,16,01,25,3.90
2017,04,16,01,26,3.90
2017,04,16,01,27,3.90
2017,04,16,01,28,3.90
2017,04,16,01,29,3.90
2017,04,16,01,30,3.90
2017,04,16,01,31,4.00
2017,04,16,01,32,4.00
2017,04,16,01,33,4.00
2017,04,16,01,34,4.00
2017,04,16,01,35,4.00
2017,04,16,01,36,4.00
2017,04,16,01,37,4.00
2017,04,16,01,38,4.00
2017,04,16,01,39,4.00
2017,04,16,01,40,4.00
2017,04,16,01,41,4.00
2017,04,16,01,42,4.00
2017,04,16,01,43,4.00
2017,04,16,01,44,4.10
2017,04,16,01,45,4.10
2017,04,16,01,46,4.10
2017,04,16,01,47,4.10
2017,04,16,01,48,4.10
2017,04,16,01,49,4.10
2017,04,16,01,50,4.10
2017,04,16,01,51,4.10
2017,04,16,01,52,4.10
2017,04,16,01,53,4.10
2017,04,16,01,54,4.00
2017,04,16,01,55,4.00
2017,04,16,01,56,3.90
2017,04,16,01,57,3.90
2017,04,16,01,58,3.80
2017,04,16,01,59,3.80
2017,04,16,02,00,3.80
2017,04,16,02,01,3.80
2017,04,16,02,02,3.80
2017,04,16,02,03,3.70
2017,04,16,02,04,3.70
2017,04,16,02,05,3.70
2017,04,16,02,06,3.70
2017,04,16,02,07,3.70
2017,04,16,02,08,3.70
2017,04,16,02,09,3.60
2017,04,16,02,10,3.60
2017,04,16,02,11,3.60
2017,04,16,02,12,3.60
2017,04,16,02,13,3.60
2017,04,16,02,14,3.60
2017,04,16,02,15,3.60
2017,04,16,02,16,3.60
2017,04,16,02,17,3.60
2017,04,16,02,18,3.70
2017,04,16,02,19,3.70
2017,04,16,02,20,3.70
2017,04,16,02,21,3.70
2017,04,16,02,22,3.70
2017,04,16,02,23,3.70
2017,04,16,02,24,3.70
2017,04,16,02,25,3.70
2017,04,16,02,26,3.70
2017,04,16,02,27,3.70
2017,04,16,02,28,3.70
2017,04,16,02,29,3.70
2017,04,16,02,30,3.70
2017,04,16,02,31,3.80
2017,04,16,02,32,3.80
2017,04,16,02,33,3.80
2017,04,16,02,34,3.80
2017,04,16,02,35,3.80
2017,04,16,02,36,3.80
2017,04,16,02,37,3.80
2017,04,16,02,38,3.80
2017,04,16,02,39,3.80
2017,04,16,02,40,3.80
2017,04,16,02,41,3.70
2017,04,16,02,42,3.70
2017,04,16,02,43,3.80
2017,04,16,02,44,3.80
2017,04,16,02,45,3.80
2017,04,16,02,46,3.80
2017,04,16,02,47,3.80
2017,04,16,02,48,3.80
2017,04,16,02,49,3.80
2017,04,16,02,50,3.80
2017,04,16,02,51,3.80
2017,04,16,02,52,3.80
2017,04,16,02,53,3.80
2017,04,16,02,54,3.80
2017,04,16,02,55,3.80
2017,04,16,02,56,3.80
2017,04,16,02,57,3.80
2017,04,16,02,58,3.80
2017,04,16,02,59,3.80
2017,04,16,03,00,3.80
2017,04,16,03,01,3.80
2017,04,16,03,02,3.80
2017,04,16,03,03,3.70
2017,04,16,03,04,3.70
2017,04,16,03,05,3.70
2017,04,16,03,06,3.70
2017,04,16,03,07,3.70
2017,04,16,03,08,3.60
2017,04,16,03,09,3.60
2017,04,16,03,10,3.60
2017,04,16,03,11,3.60
2017,04,16,03,12,3.60
2017,04,16,03,13,3.60
2017,04,16,03,14,3.60
2017,04,16,03,15,3.60
2017,04,16,03,16,3.60
2017,04,16,03,17,3.60
2017,04,16,03,18,3.60
2017,04,16,03,19,3.50
2017,04,16,03,20,3.60
2017,04,16,03,21,3.60
2017,04,16,03,22,3.60
2017,04,16,03,23,3.70
2017,04,16,03,24,3.60
2017,04,16,03,25,3.60
2017,04,16,03,26,3.60
2017,04,16,03,27,3.60
2017,04,16,03,28,3.60
2017,04,16,03,29,3.60
2017,04,16,03,30,3.60
2017,04,16,03,31,3.60
2017,04,16,03,32,3.60
2017,04,16,03,33,3.60
2017,04,16,03,34,3.60
2017,04,16,03,35,3.60
2017,04,16,03,36,3.60
2017,04,16,03,37,3.50
2017,04,16,03,38,3.60
2017,04,16,03,39,3.60
2017,04,16,03,40,3.60
2017,04,16,03,41,3.70
2017,04,16,03,42,3.70
2017,04,16,03,43,3.70
2017,04,16,03,44,3.70
2017,04,16,03,45,3.70
2017,04,16,03,46,3.80
2017,04,16,03,47,3.80
2017,04,16,03,48,3.80
2017,04,16,03,49,3.80
2017,04,16,03,50,3.80
2017,04,16,03,51,3.80
2017,04,16,03,52,3.80
2017,04,16,03,53,3.80
2017,04,16,03,54,3.80
2017,04,16,03,55,3.80
2017,04,16,03,56,3.80
2017,04,16,03,57,3.80
2017,04,16,03,58,3.80
2017,04,16,03,59,3.80
2017,04,16,04,00,3.80
2017,04,16,04,01,3.80
2017,04,16,04,02,3.80
2017,04,16,04,03,3.80
2017,04,16,04,04,3.80
2017,04,16,04,05,3.90
2017,04,16,04,06,3.90
2017,04,16,04,07,4.00
2017,04,16,04,08,4.00
2017,04,16,04,09,4.10
2017,04,16,04,10,4.20
2017,04,16,04,11,4.20
2017,04,16,04,12,4.30
2017,04,16,04,13,4.40
2017,04,16,04,14,4.50
2017,04,16,04,15,4.50
2017,04,16,04,16,4.60
2017,04,16,04,17,4.70
2017,04,16,04,18,4.80
2017,04,16,04,19,4.90
2017,04,16,04,20,5.00
2017,04,16,04,21,5.10
2017,04,16,04,22,5.20
2017,04,16,04,23,5.20
2017,04,16,04,24,5.30
2017,04,16,04,25,5.40
2017,04,16,04,26,5.40
2017,04,16,04,27,5.50
2017,04,16,04,28,5.50
2017,04,16,04,29,5.60
2017,04,16,04,30,5.60
2017,04,16,04,31,5.60
2017,04,16,04,32,5.60
2017,04,16,04,33,5.70
2017,04,16,04,34,5.70
2017,04,16,04,35,5.80
2017,04,16,04,36,5.80
2017,04,16,04,37,5.90
2017,04,16,04,38,5.90
2017,04,16,04,39,5.90
2017,04,16,04,40,6.00
2017,04,16,04,41,6.00
2017,04,16,04,42,6.00
2017,04,16,04,43,6.10
2017,04,16,04,44,6.10
2017,04,16,04,45,6.10
2017,04,16,04,46,6.10
2017,04,16,04,47,6.10
2017,04,16,04,48,6.10
2017,04,16,04,49,6.20
2017,04,16,04,50,6.20
2017,04,16,04,51,6.20
2017,04,16,04,52,6.20
2017,04,16,04,53,6.20
2017,04,16,04,54,6.20
2017,04,16,04,55,6.20
2017,04,16,04,56,6.20
2017,04,16,04,57,6.20
2017,04,16,04,58,6.10
2017,04,16,04,59,6.10
2017,04,16,05,00,6.10
2017,04,16,05,01,6.10
2017,04,16,05,02,6.10
2017,04,16,05,03,6.10
2017,04,16,05,04,6.10
2017,04,16,05,05,6.10
2017,04,16,05,06,6.20
2017,04,16,05,07,6.20
2017,04,16,05,08,6.20
2017,04,16,05,09,6.20
2017,04,16,05,10,6.20
2017,04,16,05,11,6.20
2017,04,16,05,12,6.20
2017,04,16,05,13,6.20
2017,04,16,05,14,6.20
2017,04,16,05,15,6.10
2017,04,16,05,16,6.10
2017,04,16,05,17,6.10
2017,04,16,05,18,6.10
2017,04,16,05,19,6.10
2017,04,16,05,20,6.10
2017,04,16,05,21,6.10
2017,04,16,05,22,6.10
2017,04,16,05,23,6.10
2017,04,16,05,24,6.10
2017,04,16,05,25,6.10
2017,04,16,05,26,6.10
2017,04,16,05,27,6.20
2017,04,16,05,28,6.20
2017,04,16,05,29,6.20
2017,04,16,05,30,6.20
2017,04,16,05,31,6.30
2017,04,16,05,32,6.40
2017,04,16,05,33,6.60
2017,04,16,05,34,6.70
2017,04,16,05,35,6.70
2017,04,16,05,36,6.70
2017,04,16,05,37,6.70
2017,04,16,05,38,6.70
2017,04,16,05,39,6.70
2017,04,16,05,40,6.70
2017,04,16,05,41,6.60
2017,04,16,05,42,6.60
2017,04,16,05,43,6.50
2017,04,16,05,44,6.40
2017,04,16,05,45,6.40
2017,04,16,05,46,6.30
2017,04,16,05,47,6.30
2017,04,16,05,48,6.20
2017,04,16,05,49,6.20
2017,04,16,05,50,6.20
2017,04,16,05,51,6.30
2017,04,16,05,52,6.40
2017,04,16,05,53,6.50
2017,04,16,05,54,6.50
2017,04,16,05,55,6.60
2017,04,16,05,56,6.60
2017,04,16,05,57,6.70
2017,04,16,05,58,6.80
2017,04,16,05,59,6.90
2017,04,16,06,00,7.00
2017,04,16,06,01,7.10
2017,04,16,06,02,7.10
2017,04,16,06,03,7.10
2017,04,16,06,04,7.00
2017,04,16,06,05,6.90
2017,04,16,06,06,6.90
2017,04,16,06,07,6.90
2017,04,16,06,08,6.90
2017,04,16,06,09,6.90
2017,04,16,06,10,6.90
2017,04,16,06,11,6.90
2017,04,16,06,12,6.90
2017,04,16,06,13,6.90
2017,04,16,06,14,6.90
2017,04,16,06,15,7.00
2017,04,16,06,16,7.00
2017,04,16,06,17,7.00
2017,04,16,06,18,7.00
2017,04,16,06,19,6.90
2017,04,16,06,20,7.00
2017,04,16,06,21,7.00
2017,04,16,06,22,7.00
2017,04,16,06,23,7.00
2017,04,16,06,24,7.00
2017,04,16,06,25,7.00
2017,04,16,06,26,7.10
2017,04,16,06,27,7.10
2017,04,16,06,28,7.10
2017,04,16,06,29,7.10
2017,04,16,06,30,7.10
2017,04,16,06,31,7.10
2017,04,16,06,32,7.10
2017,04,16,06,33,7.10
2017,04,16,06,34,7.10
2017,04,16,06,35,7.10
2017,04,16,06,36,7.10
2017,04,16,06,37,7.00
2017,04,16,06,38,7.00
2017,04,16,06,39,6.90
2017,04,16,06,40,6.90
2017,04,16,06,41,6.80
2017,04,16,06,42,6.80
2017,04,16,06,43,6.80
2017,04,16,06,44,6.80
2017,04,16,06,45,6.80
2017,04,16,06,46,6.80
2017,04,16,06,47,6.80
2017,04,16,06,48,6.80
2017,04,16,06,49,6.80
2017,04,16,06,50,6.80
2017,04,16,06,51,6.80
2017,04,16,06,52,6.80
2017,04,16,06,53,6.80
2017,04,16,06,54,6.80
2017,04,16,06,55,6.80
2017,04,16,06,56,6.80
2017,04,16,06,57,6.80
2017,04,16,06,58,6.80
2017,04,16,06,59,6.80
2017,04,16,07,00,6.70
2017,04,16,07,01,6.70
2017,04,16,07,02,6.70
2017,04,16,07,03,6.70
2017,04,16,07,04,6.80
2017,04,16,07,05,6.80
2017,04,16,07,06,6.80
2017,04,16,07,07,6.90
2017,04,16,07,08,6.90
2017,04,16,07,09,6.90
2017,04,16,07,10,6.90
2017,04,16,07,11,6.90
2017,04,16,07,12,6.90
2017,04,16,07,13,7.00
2017,04,16,07,14,7.00
2017,04,16,07,15,7.10
2017,04,16,07,16,7.10
2017,04,16,07,17,7.20
2017,04,16,07,18,7.20
2017,04,16,07,19,7.20
2017,04,16,07,20,7.30
2017,04,16,07,21,7.30
2017,04,16,07,22,7.40
2017,04,16,07,23,7.50
2017,04,16,07,24,7.60
2017,04,16,07,25,7.60
2017,04,16,07,26,7.70
2017,04,16,07,27,7.70
2017,04,16,07,28,7.80
2017,04,16,07,29,7.80
2017,04,16,07,30,7.80
2017,04,16,07,31,7.80
2017,04,16,07,32,7.90
2017,04,16,07,33,7.90
2017,04,16,07,34,7.90
2017,04,16,07,35,7.90
2017,04,16,07,36,7.90
2017,04,16,07,37,7.90
2017,04,16,07,38,7.90
2017,04,16,07,39,7.90
2017,04,16,07,40,7.90
2017,04,16,07,41,7.90
2017,04,16,07,42,7.90
2017,04,16,07,43,7.90
2017,04,16,07,44,7.90
2017,04,16,07,45,7.90
2017,04,16,07,46,7.90
2017,04,16,07,47,7.90
2017,04,16,07,48,8.00
2017,04,16,07,49,8.00
2017,04,16,07,50,8.10
2017,04,16,07,51,8.20
2017,04,16,07,52,8.20
2017,04,16,07,53,8.30
2017,04,16,07,54,8.40
2017,04,16,07,55,8.40
2017,04,16,07,56,8.40
2017,04,16,07,57,8.40
2017,04,16,07,58,8.40
2017,04,16,07,59,8.40
2017,04,16,08,00,8.40
2017,04,16,08,01,8.40
2017,04,16,08,02,8.40
2017,04,16,08,03,8.40
2017,04,16,08,04,8.40
2017,04,16,08,05,8.40
2017,04,16,08,06,8.40
2017,04,16,08,07,8.40
2017,04,16,08,08,8.40
2017,04,16,08,09,8.40
2017,04,16,08,10,8.40
2017,04,16,08,11,8.50
2017,04,16,08,12,8.50
2017,04,16,08,13,8.60
2017,04,16,08,14,8.60
2017,04,16,08,15,8.60
2017,04,16,08,16,8.70
2017,04,16,08,17,8.70
2017,04,16,08,18,8.70
2017,04,16,08,19,8.80
2017,04,16,08,20,8.80
2017,04,16,08,21,8.80
2017,04,16,08,22,8.80
2017,04,16,08,23,8.90
2017,04,16,08,24,8.90
2017,04,16,08,25,8.90
2017,04,16,08,26,9.00
2017,04,16,08,27,9.00
2017,04,16,08,28,9.10
2017,04,16,08,29,9.10
2017,04,16,08,30,9.20
2017,04,16,08,31,9.30
2017,04,16,08,32,9.30
2017,04,16,08,33,9.40
2017,04,16,08,34,9.40
2017,04,16,08,35,9.50
2017,04,16,08,36,9.60
2017,04,16,08,37,9.70
2017,04,16,08,38,9.70
2017,04,16,08,39,9.70
2017,04,16,08,40,9.70
2017,04,16,08,41,9.80
2017,04,16,08,42,9.80
2017,04,16,08,43,9.90
2017,04,16,08,44,10.00
2017,04,16,08,45,10.10
2017,04,16,08,46,10.20
2017,04,16,08,47,10.30
2017,04,16,08,48,10.40
2017,04,16,08,49,10.50
2017,04,16,08,50,10.70
2017,04,16,08,51,10.70
2017,04,16,08,52,10.70
2017,04,16,08,53,10.80
2017,04,16,08,54,10.90
2017,04,16,08,55,10.90
2017,04,16,08,56,10.90
2017,04,16,08,57,10.90
2017,04,16,08,58,10.80
2017,04,16,08,59,10.90
2017,04,16,09,00,10.90
2017,04,16,09,01,10.90
2017,04,16,09,02,10.90
2017,04,16,09,03,11.00
2017,04,16,09,04,11.00
2017,04,16,09,05,11.10
2017,04,16,09,06,11.10
2017,04,16,09,07,11.10
2017,04,16,09,08,11.10
2017,04,16,09,09,11.10
2017,04,16,09,10,11.10
2017,04,16,09,11,11.10
2017,04,16,09,12,11.10
2017,04,16,09,13,11.10
2017,04,16,09,14,11.10
2017,04,16,09,15,11.10
2017,04,16,09,19,10.90
2017,04,16,09,20,10.90
2017,04,16,09,21,11.00
2017,04,16,09,22,11.10
2017,04,16,09,23,11.10
2017,04,16,09,24,11.20
2017,04,16,09,25,11.30
2017,04,16,09,26,11.30
2017,04,16,09,27,11.30
2017,04,16,09,28,11.20
2017,04,16,09,29,11.20
2017,04,16,09,30,11.20
2017,04,16,09,31,11.20
2017,04,16,09,32,11.20
2017,04,16,09,33,11.20
2017,04,16,09,34,11.20
2017,04,16,09,35,11.20
2017,04,16,09,36,11.20
2017,04,16,09,37,11.20
2017,04,16,09,38,11.30
2017,04,16,09,39,11.30
2017,04,16,09,40,11.30
2017,04,16,09,41,11.40
2017,04,16,09,42,11.40
2017,04,16,09,43,11.40
2017,04,16,09,44,11.40
2017,04,16,09,45,11.50
2017,04,16,09,46,11.50
2017,04,16,09,47,11.60
2017,04,16,09,48,11.60
2017,04,16,09,49,11.70
2017,04,16,09,50,11.70
2017,04,16,09,51,11.70
2017,04,16,09,52,11.70
2017,04,16,09,53,11.70
2017,04,16,09,54,11.70
2017,04,16,09,55,11.60
2017,04,16,09,56,11.60
2017,04,16,09,57,11.60
2017,04,16,09,58,11.60
2017,04,16,09,59,11.60
2017,04,16,10,00,11.70
2017,04,16,10,01,11.80
2017,04,16,10,02,11.80
2017,04,16,10,03,11.90
2017,04,16,10,04,12.00
2017,04,16,10,05,12.10
2017,04,16,10,06,12.10
2017,04,16,10,07,12.10
2017,04,16,10,08,12.10
2017,04,16,10,09,12.10
2017,04,16,10,10,12.10
2017,04,16,10,11,12.10
2017,04,16,10,12,12.10
2017,04,16,10,13,12.10
2017,04,16,10,14,12.20
2017,04,16,10,15,12.30
2017,04,16,10,16,12.40
2017,04,16,10,17,12.50
2017,04,16,10,18,12.60
2017,04,16,10,19,12.70
2017,04,16,10,20,12.60
2017,04,16,10,21,12.60
2017,04,16,10,22,12.60
2017,04,16,10,23,12.70
2017,04,16,10,24,12.70
2017,04,16,10,25,12.70
2017,04,16,10,26,12.80
2017,04,16,10,27,12.80
2017,04,16,10,28,12.60
2017,04,16,10,29,12.60
2017,04,16,10,30,12.60
2017,04,16,10,31,12.50
2017,04,16,10,32,12.50
2017,04,16,10,33,12.50
2017,04,16,10,34,12.40
2017,04,16,10,35,12.50
2017,04,16,10,36,12.70
2017,04,16,10,37,12.80
2017,04,16,10,38,12.90
2017,04,16,10,39,12.90
2017,04,16,10,40,12.90
2017,04,16,10,41,12.80
2017,04,16,10,42,12.90
2017,04,16,10,43,13.00
2017,04,16,10,44,13.10
2017,04,16,10,45,13.20
2017,04,16,10,46,13.20
2017,04,16,10,47,13.20
2017,04,16,10,48,13.10
2017,04,16,10,49,13.00
2017,04,16,10,50,12.90
2017,04,16,10,51,12.80
2017,04,16,10,52,12.60
2017,04,16,10,53,12.70
2017,04,16,10,54,12.80
2017,04,16,10,55,12.80
2017,04,16,10,56,12.90
2017,04,16,10,57,12.90
2017,04,16,10,58,12.80
2017,04,16,10,59,12.70
2017,04,16,11,00,12.70
2017,04,16,11,01,12.70
2017,04,16,11,02,12.70
2017,04,16,11,03,12.70
2017,04,16,11,04,12.70
2017,04,16,11,05,12.70
2017,04,16,11,06,12.60
2017,04,16,11,07,12.60
2017,04,16,11,08,12.50
2017,04,16,11,09,12.40
2017,04,16,11,10,12.40
2017,04,16,11,11,12.40
2017,04,16,11,12,12.50
2017,04,16,11,13,12.50
2017,04,16,11,14,12.60
2017,04,16,11,15,12.60
2017,04,16,11,16,12.70
2017,04,16,11,17,12.80
2017,04,16,11,18,12.80
2017,04,16,11,19,12.80
2017,04,16,11,20,12.80
2017,04,16,11,21,12.90
2017,04,16,11,22,12.90
2017,04,16,11,23,12.80
2017,04,16,11,24,12.70
2017,04,16,11,25,12.60
2017,04,16,11,26,12.50
2017,04,16,11,27,12.50
2017,04,16,11,28,12.60
2017,04,16,11,29,12.70
2017,04,16,11,30,12.70
2017,04,16,11,31,12.70
2017,04,16,11,32,12.70
2017,04,16,11,33,12.80
2017,04,16,11,34,12.80
2017,04,16,11,35,12.90
2017,04,16,11,36,12.90
2017,04,16,11,37,12.90
2017,04,16,11,38,13.00
2017,04,16,11,39,13.10
2017,04,16,11,40,13.10
2017,04,16,11,41,13.00
2017,04,16,11,42,13.00
2017,04,16,11,43,12.90
2017,04,16,11,44,12.90
2017,04,16,11,45,12.90
2017,04,16,11,46,12.90
2017,04,16,11,47,12.90
2017,04,16,11,48,12.90
2017,04,16,11,49,12.90
2017,04,16,11,50,12.80
2017,04,16,11,51,12.80
2017,04,16,11,52,12.90
2017,04,16,11,53,12.90
2017,04,16,11,54,13.00
2017,04,16,11,55,13.10
2017,04,16,11,56,13.20
2017,04,16,11,57,13.20
2017,04,16,11,58,13.10
2017,04,16,11,59,13.10
2017,04,16,12,00,13.00
2017,04,16,12,01,13.00
2017,04,16,12,02,13.10
2017,04,16,12,03,13.20
2017,04,16,12,04,13.20
2017,04,16,12,05,13.10
2017,04,16,12,06,13.10
2017,04,16,12,07,13.10
2017,04,16,12,08,13.20
2017,04,16,12,09,13.30
2017,04,16,12,10,13.40
2017,04,16,12,11,13.50
2017,04,16,12,12,13.60
2017,04,16,12,13,13.60
2017,04,16,12,14,13.60
2017,04,16,12,15,13.70
2017,04,16,12,16,13.80
2017,04,16,12,17,13.80
2017,04,16,12,18,13.90
2017,04,16,12,19,13.90
2017,04,16,12,20,14.00
2017,04,16,12,21,13.90
2017,04,16,12,22,13.80
2017,04,16,12,23,13.80
2017,04,16,12,24,13.80
2017,04,16,12,25,13.80
2017,04,16,12,26,13.70
2017,04,16,12,27,13.60
2017,04,16,12,28,13.60
2017,04,16,12,29,13.50
2017,04,16,12,30,13.50
2017,04,16,12,31,13.40
2017,04,16,12,32,13.40
2017,04,16,12,33,13.30
2017,04,16,12,34,13.50
2017,04,16,12,35,13.70
2017,04,16,12,36,13.80
2017,04,16,12,37,13.80
2017,04,16,12,38,13.70
2017,04,16,12,39,13.60
2017,04,16,12,40,13.50
2017,04,16,12,41,13.50
2017,04,16,12,42,13.40
2017,04,16,12,43,13.40
2017,04,16,12,44,13.40
2017,04,16,12,45,13.50
2017,04,16,12,46,13.50
2017,04,16,12,47,13.60
2017,04,16,12,48,13.70
2017,04,16,12,49,13.80
2017,04,16,12,50,13.90
2017,04,16,12,51,13.90
2017,04,16,12,52,14.00
2017,04,16,12,53,14.10
2017,04,16,12,54,14.10
2017,04,16,12,55,14.00
2017,04,16,12,56,13.90
2017,04,16,12,57,13.90
2017,04,16,12,58,13.90
2017,04,16,12,59,13.90
2017,04,16,13,00,13.80
2017,04,16,13,01,13.90
2017,04,16,13,02,13.90
2017,04,16,13,03,13.90
2017,04,16,13,04,13.90
2017,04,16,13,05,14.00
2017,04,16,13,06,14.10
2017,04,16,13,07,14.20
2017,04,16,13,08,14.20
2017,04,16,13,09,14.20
2017,04,16,13,10,14.20
2017,04,16,13,11,14.10
2017,04,16,13,12,14.10
2017,04,16,13,13,14.10
2017,04,16,13,14,14.10
2017,04,16,13,15,14.00
2017,04,16,13,16,14.10
2017,04,16,13,17,14.20
2017,04,16,13,18,14.30
2017,04,16,13,19,14.30
2017,04,16,13,20,14.30
2017,04,16,13,21,14.30
2017,04,16,13,22,14.40
2017,04,16,13,23,14.50
2017,04,16,13,24,14.60
2017,04,16,13,25,14.80
2017,04,16,13,26,14.80
2017,04,16,13,27,14.80
2017,04,16,13,28,14.80
2017,04,16,13,29,14.80
2017,04,16,13,30,14.80
2017,04,16,13,31,14.80
2017,04,16,13,32,14.80
2017,04,16,13,33,14.80
2017,04,16,13,34,14.90
2017,04,16,13,35,14.90
2017,04,16,13,36,15.00
2017,04,16,13,37,15.00
2017,04,16,13,38,14.90
2017,04,16,13,39,14.90
2017,04,16,13,40,14.90
2017,04,16,13,41,14.90
2017,04,16,13,42,14.90
2017,04,16,13,43,14.80
2017,04,16,13,44,14.70
2017,04,16,13,45,14.80
2017,04,16,13,46,14.90
2017,04,16,13,47,15.00
2017,04,16,13,48,14.90
2017,04,16,13,49,15.00
2017,04,16,13,50,15.00
2017,04,16,13,51,15.10
2017,04,16,13,52,15.20
2017,04,16,13,53,15.20
2017,04,16,13,54,15.30
2017,04,16,13,55,15.30
2017,04,16,13,56,15.30
2017,04,16,13,57,15.30
2017,04,16,13,58,15.20
2017,04,16,13,59,15.20
2017,04,16,14,00,15.20
2017,04,16,14,01,15.40
2017,04,16,14,02,15.40
2017,04,16,14,03,15.40
2017,04,16,14,04,15.30
2017,04,16,14,05,15.30
2017,04,16,14,06,15.40
2017,04,16,14,07,15.40
2017,04,16,14,08,15.40
2017,04,16,14,09,15.40
2017,04,16,14,10,15.40
2017,04,16,14,11,15.40
2017,04,16,14,12,15.40
2017,04,16,14,13,15.40
2017,04,16,14,14,15.30
2017,04,16,14,15,15.30
2017,04,16,14,16,15.30
2017,04,16,14,17,15.30
2017,04,16,14,18,15.40
2017,04,16,14,19,15.40
2017,04,16,14,20,15.30
2017,04,16,14,21,15.20
2017,04,16,14,22,15.20
2017,04,16,14,23,15.20
2017,04,16,14,24,15.20
2017,04,16,14,25,15.20
2017,04,16,14,26,15.20
2017,04,16,14,27,15.20
2017,04,16,14,28,15.20
2017,04,16,14,29,15.30
2017,04,16,14,30,15.40
2017,04,16,14,31,15.40
2017,04,16,14,32,15.30
2017,04,16,14,33,15.30
2017,04,16,14,34,15.20
2017,04,16,14,35,15.30
2017,04,16,14,36,15.30
2017,04,16,14,37,15.30
2017,04,16,14,38,15.30
2017,04,16,14,39,15.40
2017,04,16,14,40,15.50
2017,04,16,14,41,15.60
2017,04,16,14,42,15.60
2017,04,16,14,43,15.60
2017,04,16,14,44,15.50
2017,04,16,14,45,15.40
2017,04,16,14,46,15.40
2017,04,16,14,47,15.30
2017,04,16,14,48,15.40
2017,04,16,14,49,15.50
2017,04,16,14,50,15.60
2017,04,16,14,51,15.70
2017,04,16,14,52,15.70
2017,04,16,14,53,15.80
2017,04,16,14,54,15.80
2017,04,16,14,55,16.00
2017,04,16,14,56,16.10
2017,04,16,14,57,16.10
2017,04,16,14,58,16.10
2017,04,16,14,59,16.20
2017,04,16,15,00,16.10
2017,04,16,15,01,16.00
2017,04,16,15,02,15.90
2017,04,16,15,03,15.80
2017,04,16,15,04,15.80
2017,04,16,15,05,15.80
2017,04,16,15,06,15.80
2017,04,16,15,07,15.80
2017,04,16,15,08,15.80
2017,04,16,15,09,15.80
2017,04,16,15,10,15.80
2017,04,16,15,11,15.80
2017,04,16,15,12,15.70
2017,04,16,15,13,15.70
2017,04,16,15,14,15.70
2017,04,16,15,15,15.70
2017,04,16,15,16,15.70
2017,04,16,15,17,15.70
2017,04,16,15,18,15.80
2017,04,16,15,19,15.80
2017,04,16,15,20,15.90
2017,04,16,15,21,15.90
2017,04,16,15,22,16.00
2017,04,16,15,23,16.00
2017,04,16,15,24,15.90
2017,04,16,15,25,16.00
2017,04,16,15,26,16.00
2017,04,16,15,27,16.00
2017,04,16,15,28,16.00
2017,04,16,15,29,15.90
2017,04,16,15,30,15.90
2017,04,16,15,31,15.90
2017,04,16,15,32,16.00
2017,04,16,15,33,16.00
2017,04,16,15,34,16.00
2017,04,16,15,35,16.10
2017,04,16,15,36,16.10
2017,04,16,15,37,16.10
2017,04,16,15,38,16.10
2017,04,16,15,39,16.10
2017,04,16,15,40,16.10
2017,04,16,15,41,16.10
2017,04,16,15,42,16.10
2017,04,16,15,43,16.10
2017,04,16,15,44,16.20
2017,04,16,15,45,16.20
2017,04,16,15,46,16.30
2017,04,16,15,47,16.40
2017,04,16,15,48,16.40
2017,04,16,15,49,16.30
2017,04,16,15,50,16.30
2017,04,16,15,51,16.20
2017,04,16,15,52,16.20
2017,04,16,15,53,16.20
2017,04,16,15,54,16.20
2017,04,16,15,55,16.20
2017,04,16,15,56,16.30
2017,04,16,15,57,16.40
2017,04,16,15,58,16.40
2017,04,16,15,59,16.50
2017,04,16,16,00,16.50
2017,04,16,16,01,16.50
2017,04,16,16,02,16.40
2017,04,16,16,03,16.30
2017,04,16,16,04,16.20
2017,04,16,16,05,16.20
2017,04,16,16,06,16.30
2017,04,16,16,07,16.30
2017,04,16,16,08,16.40
2017,04,16,16,09,16.50
2017,04,16,16,10,16.50
2017,04,16,16,11,16.50
2017,04,16,16,12,16.50
2017,04,16,16,13,16.50
2017,04,16,16,14,16.40
2017,04,16,16,15,16.30
2017,04,16,16,16,16.30
2017,04,16,16,17,16.30
2017,04,16,16,18,16.40
2017,04,16,16,19,16.40
2017,04,16,16,20,16.50
2017,04,16,16,21,16.60
2017,04,16,16,22,16.70
2017,04,16,16,23,16.80
2017,04,16,16,24,16.80
2017,04,16,16,25,16.80
2017,04,16,16,26,16.80
2017,04,16,16,27,16.90
2017,04,16,16,28,16.80
2017,04,16,16,29,16.70
2017,04,16,16,30,16.60
2017,04,16,16,31,16.60
2017,04,16,16,32,16.60
2017,04,16,16,33,16.70
2017,04,16,16,34,16.80
2017,04,16,16,35,16.80
2017,04,16,16,36,16.80
2017,04,16,16,37,16.70
2017,04,16,16,38,16.60
2017,04,16,16,39,16.60
2017,04,16,16,40,16.60
2017,04,16,16,41,16.60
2017,04,16,16,42,16.70
2017,04,16,16,43,16.80
2017,04,16,16,44,16.80
2017,04,16,16,45,16.80
2017,04,16,16,46,16.80
2017,04,16,16,47,16.80
2017,04,16,16,48,16.70
2017,04,16,16,49,16.80
2017,04,16,16,50,16.70
2017,04,16,16,51,16.70
2017,04,16,16,52,16.70
2017,04,16,16,53,16.60
2017,04,16,16,54,16.60
2017,04,16,16,55,16.70
2017,04,16,16,56,16.70
2017,04,16,16,57,16.70
2017,04,16,16,58,16.70
2017,04,16,16,59,16.70
2017,04,16,17,00,16.70
2017,04,16,17,01,16.70
2017,04,16,17,02,16.70
2017,04,16,17,03,16.70
2017,04,16,17,04,16.80
2017,04,16,17,05,16.80
2017,04,16,17,06,16.80
2017,04,16,17,07,16.70
2017,04,16,17,08,16.70
2017,04,16,17,09,16.70
2017,04,16,17,10,16.60
2017,04,16,17,11,16.60
2017,04,16,17,12,16.60
2017,04,16,17,13,16.60
2017,04,16,17,14,16.60
2017,04,16,17,15,16.60
2017,04,16,17,16,16.60
2017,04,16,17,17,16.70
2017,04,16,17,18,16.70
2017,04,16,17,19,16.70
2017,04,16,17,20,16.70
2017,04,16,17,21,16.70
2017,04,16,17,22,16.70
2017,04,16,17,23,16.70
2017,04,16,17,24,16.70
2017,04,16,17,25,16.70
2017,04,16,17,26,16.70
2017,04,16,17,27,16.80
2017,04,16,17,28,16.80
2017,04,16,17,29,16.80
2017,04,16,17,30,16.80
2017,04,16,17,31,16.80
2017,04,16,17,32,16.70
2017,04,16,17,33,16.70
2017,04,16,17,34,16.70
2017,04,16,17,35,16.70
2017,04,16,17,36,16.70
2017,04,16,17,37,16.70
2017,04,16,17,38,16.70
2017,04,16,17,39,16.80
2017,04,16,17,40,16.80
2017,04,16,17,41,16.80
2017,04,16,17,42,16.80
2017,04,16,17,43,16.80
2017,04,16,17,44,16.80
2017,04,16,17,45,16.80